Gainesville, FL

8:44 AM EDT on June 25, 2017 (GMT -0400)
Gainesville Regional

Weather History for KGNV - September, 2012

Change the Weather History Date:

Wednesday, September 19, 2012

  Actual Average Record
Temperature  
Mean Temperature 79 °F 78 °F  
Max Temperature 87 °F 87 °F 97 °F (1925)
Min Temperature 70 °F 69 °F 53 °F (1981)
Degree Days  
Heating Degree Days 0 0  
Month to date heating degree days 0 0  
Since 1 July heating degree days 0 0  
Cooling Degree Days 14 13  
Month to date cooling degree days 292 269  
Year to date cooling degree days 2550 2213  
Growing Degree Days 28 (Base 50)    
Moisture  
Dew Point 71 °F    
Average Humidity 77    
Maximum Humidity 100    
Minimum Humidity 53    
Precipitation  
Precipitation T in 0.15 in 1.94 in (2016)
Month to date precipitation 4.63 2.97  
Year to date precipitation 46.74 38.54  
Snow  
Snow 0.00 in 0.00 in 0.00 in ()
Month to date snowfall 0.0 0.0  
Since 1 July snowfall 0.0 0.0  
Since 1 September snowfall 0.0 0.0  
Snow Depth 0.00 in    
Sea Level Pressure  
Sea Level Pressure 29.96 in    
Wind  
Wind Speed 3 mph (WNW)    
Max Wind Speed 13 mph    
Max Gust Speed 16 mph    
Visibility 8 miles    
Events Rain , Thunderstorm    
T = Trace of Precipitation, MM = Missing Value Source: NWS Daily Summary

Daily Weather History Graph

Daily Weather History Graph

Search for Another Location

Airport or City:

Trip Planner

Search our weather history database for the weather conditions in past years. The results will help you decide how hot, cold, wet, or windy it might be!

Date:

Astronomy

Sep. 19, 2012 Rise Set
Actual Time 7:16 AM EDT 7:28 PM EDT
Civil Twilight 6:52 AM EDT 7:52 PM EDT
Nautical Twilight 6:24 AM EDT 8:20 PM EDT
Astronomical Twilight 5:56 AM EDT 8:48 PM EDT
Moon 11:02 AM EDT (9/19) 10:01 PM EDT (9/19)
Length of Visible Light 13h 00m
Length of Day
12h 12m
Waxing Crescent, 17% of the Moon is Illuminated
Sep 19
Waxing Crescent
Sep 22
First Quarter
Sep 29
Full
Oct 8
Last Quarter
Oct 15
New

Hourly Weather History & Observations

Time (EDT) Temp. Heat Index Dew Point Humidity Pressure Visibility Wind Dir Wind Speed Gust Speed Precip Events Conditions
12:16 AM 73.4 °F - 71.6 °F 94% 29.93 in 4.0 mi SSW 11.5 mph - 0.10 in Rain , Thunderstorm Heavy Thunderstorms and Rain
12:33 AM 73.4 °F - 69.8 °F 88% 29.92 in 4.0 mi South 10.4 mph - 0.13 in Rain Rain
12:53 AM 72.0 °F - 70.0 °F 93% 29.91 in 10.0 mi WSW 4.6 mph - 0.14 in   Overcast
1:53 AM 72.0 °F - 70.0 °F 93% 29.91 in 10.0 mi SSW 6.9 mph - N/A   Mostly Cloudy
2:53 AM 73.0 °F - 71.1 °F 93% 29.90 in 10.0 mi Calm Calm - 0.00 in   Overcast
3:53 AM 73.0 °F - 70.0 °F 90% 29.90 in 10.0 mi Calm Calm - N/A   Mostly Cloudy
4:53 AM 71.1 °F - 70.0 °F 96% 29.89 in 7.0 mi Calm Calm - N/A   Clear
5:10 AM 71.6 °F - 69.8 °F 94% 29.90 in 1.8 mi Calm Calm - N/A   Clear
5:13 AM 71.6 °F - 69.8 °F 94% 29.90 in 0.8 mi Calm Calm - N/A   Mist
5:26 AM 69.8 °F - 69.8 °F 100% 29.91 in 1.2 mi Calm Calm - N/A   Partly Cloudy
5:31 AM 71.6 °F - 69.8 °F 94% 29.91 in 3.0 mi Calm Calm - N/A   Partly Cloudy
5:43 AM 69.8 °F - 69.8 °F 100% 29.92 in 2.0 mi Calm Calm - N/A   Scattered Clouds
5:53 AM 70.0 °F - 69.1 °F 97% 29.92 in 2.5 mi Calm Calm - N/A   Partly Cloudy
6:13 AM 71.6 °F - 69.8 °F 94% 29.93 in 7.0 mi Calm Calm - N/A   Partly Cloudy
6:53 AM 70.0 °F - 69.1 °F 97% 29.93 in 5.0 mi Calm Calm - N/A   Clear
7:17 AM 69.8 °F - 69.8 °F 100% 29.94 in 2.0 mi Calm Calm - N/A   Partly Cloudy
7:24 AM 69.8 °F - 69.8 °F 100% 29.94 in 6.0 mi Calm Calm - N/A   Partly Cloudy
7:53 AM 70.0 °F - 69.1 °F 97% 29.95 in 4.0 mi Calm Calm - N/A   Partly Cloudy
8:53 AM 73.4 °F - 71.6 °F 94% 29.97 in 10.0 mi Calm Calm - N/A   Clear
9:53 AM 79.0 °F - 73.0 °F 82% 29.97 in 10.0 mi Calm Calm - N/A   Partly Cloudy
10:50 AM 80.6 °F 85.4 °F 73.4 °F 79% 29.99 in 10.0 mi Calm Calm - N/A   Mostly Cloudy
10:53 AM 81.0 °F 85.8 °F 73.0 °F 77% 29.98 in 10.0 mi NW 3.5 mph - N/A   Scattered Clouds
11:10 AM 80.6 °F 84.6 °F 71.6 °F 74% 30.00 in 10.0 mi NW 3.5 mph - N/A   Mostly Cloudy
11:22 AM 80.6 °F 84.6 °F 71.6 °F 74% 30.00 in 10.0 mi Variable 3.5 mph - N/A   Scattered Clouds
11:31 AM 80.6 °F 84.6 °F 71.6 °F 74% 30.00 in 10.0 mi West 5.8 mph - N/A   Mostly Cloudy
11:39 AM 82.4 °F 87.2 °F 71.6 °F 70% 30.00 in 10.0 mi West 4.6 mph - N/A   Scattered Clouds
11:53 AM 82.0 °F 86.3 °F 71.1 °F 69% 30.00 in 10.0 mi West 5.8 mph - N/A   Partly Cloudy
12:32 PM 82.4 °F 87.2 °F 71.6 °F 70% 30.01 in 10.0 mi West 5.8 mph - N/A   Mostly Cloudy
12:41 PM 84.2 °F 89.6 °F 71.6 °F 66% 30.01 in 10.0 mi WNW 6.9 mph - N/A   Scattered Clouds
12:53 PM 82.9 °F 87.0 °F 70.0 °F 65% 30.00 in 10.0 mi Variable 5.8 mph - N/A   Mostly Cloudy
1:53 PM 84.0 °F 87.8 °F 69.1 °F 61% 29.98 in 10.0 mi NW 6.9 mph - N/A   Partly Cloudy
2:53 PM 87.1 °F 90.6 °F 68.0 °F 53% 29.97 in 10.0 mi NW 5.8 mph - N/A   Partly Cloudy
3:53 PM 84.0 °F 87.8 °F 69.1 °F 61% 29.96 in 10.0 mi NNW 8.1 mph - N/A   Mostly Cloudy
4:53 PM 84.9 °F 88.2 °F 68.0 °F 57% 29.96 in 10.0 mi NW 6.9 mph - N/A   Clear
5:53 PM 84.9 °F 88.2 °F 68.0 °F 57% 29.96 in 10.0 mi NNW 4.6 mph - N/A   Clear
6:53 PM 82.0 °F 85.5 °F 69.1 °F 65% 29.98 in 10.0 mi NNW 3.5 mph - N/A   Clear
7:53 PM 79.0 °F - 70.0 °F 74% 29.98 in 10.0 mi Calm Calm - N/A   Clear
8:53 PM 75.2 °F - 71.6 °F 89% 29.99 in 10.0 mi Calm Calm - N/A   Clear
9:53 PM 75.0 °F - 72.0 °F 90% 30.03 in 10.0 mi East 4.6 mph - N/A   Scattered Clouds
10:53 PM 77.0 °F - 73.0 °F 88% 30.04 in 10.0 mi Calm Calm - N/A   Clear
11:53 PM 75.0 °F - 73.0 °F 94% 30.04 in 10.0 mi East 3.5 mph - N/A   Clear